Location: Augirein
(42.9320°N, 0.9181°E)
Time: 16:47:25
(UTC+00:00)

Meteor 1-28 Rocket - Pass Details

Date: 20 June 2021
Orbit: 502 x 523 km, 97.4° (Epoch: 03 August)

Event Time Altitude Azimuth Distance (km) Brightness Sun altitude
Exits shadow 02:45:56 17° 184° (S) 1,390 4.9 -13.2°
Maximum altitude 02:48:46 56° 260° (W) 626 3.3 -12.9°
Drops below altitude 10° 02:52:31 10° 339° (NNW) 1,770 6.3 -12.4°
Sets 02:54:40 0° 344° (NNW) 2,664 7.3 -12.2°
